Location: Falniów
(50.3639°N, 19.9642°E)
Time: 01:10:22
(UTC+00:00)

Cosmos 2369 Rocket - Pass Details

Date: 18 January 2026
Orbit: 826 x 853 km, 71.0° (Epoch: 6 February)

Event Time Altitude Azimuth Distance (km) Brightness Sun altitude
Rises 05:14:51 0° 188° (S) 3,394 5.5 -11.9°
Reaches altitude 10° 05:17:21 10° 183° (S) 2,466 4.8 -11.6°
Maximum altitude 05:22:47 49° 110° (ESE) 1,095 3.3 -10.7°
Drops below altitude 10° 05:28:15 10° 38° (NE) 2,492 4.9 -9.9°
Sets 05:30:47 0° 33° (NNE) 3,433 5.5 -9.5°
